sat.trackr.live / text

‹ back to catalog

STARLINK-35433

NORAD 65870 · 2025-223S

PAYLOAD ACTIVE UNKNOWN

§ Identity

Operator
Country
US
Launch date
2025-10-03
Launch site
AFWTR
Launch vehicle
Mass (kg)
RCS (m²)

Purposes: comms

External: N2YO · Heavens-Above · Gunter

§ Orbital elements

Epoch: 2026-09-20T22:51:26.229888Z

Period
93.85 min
Inclination
53.1551°
Eccentricity
0.0002214
Mean motion
15.34385457 rev/d
Perigee alt
461.2 km
Apogee alt
464.3 km
Semi-major
6,840.9 km
B*
9.5107e-5
RAAN
105.6096°
Arg perigee
91.7211°
Mean anomaly
268.4046°
Rev number
5,413

§ Raw data

STARLINK-354331 65870U 25223S   26263.95238692  .00002836  00000+0  95107-4 0  99972 65870  53.1551 105.6096 0002214  91.7211 268.4046 15.34385457 54133

JSON: /api/v1/satellites/65870 · /tle

For live sub-satellite position, see the globe view (requires WebGL).

§ Visibility from observer

Set your observer location to see the next 7 days of passes ≥ 10°. The values pass through the URL so the page stays shareable.

No JS? Fill the form by hand. The geolocation button needs JavaScript.